"Platform","Muskegon M20 ReCON Buoy"
"NDBC ID","45161"
"Deployment","April 24 - April 30"
"Latitude (deg)",43.18040
"Longitude (deg)",-86.36020
"Water Depth (m)",23
"Deployment","May 17 - October 30"
"Latitude (deg)",43.18510
"Longitude (deg)",-86.35494
"Water Depth (m)",23
"Sensor Device","System Power Controller board voltage input"
"Sensor Type","Power input at underwater hub"
"Sensor Units","voltage"
"Measurement","A sample"
"Time means","Time at sample (UTC time zone)"

"Note:","This data was collected for research purposes."
"Note:","Minimal quality checking has been performed so data may contain known or unknown errors."
"Note:","Data provided by NOAA. Please credit NOAA."
"Note:","For more info see www.glerl.noaa.gov/res/recon"

"Time (UTC)","U/W Hub Bus"
"YYYY/MM/DD HH:MM","volts"
2019/04/24 17:57, 49.38
2019/04/24 18:17, 49.31
2019/04/24 18:37, 49.18
2019/04/24 18:57, 49.29
2019/04/24 19:17, 49.12
2019/04/24 19:37, 48.67
2019/04/24 19:57, 49.61
2019/04/24 20:17, 48.89
2019/04/24 20:37, 49.17
2019/04/24 20:57, 48.41
2019/04/24 21:17, 48.81
2019/04/24 21:37, 48.37
2019/04/24 21:57, 48.68
2019/04/24 22:17, 47.27
2019/04/24 22:37, 47.32
2019/04/24 22:57, 48.39
2019/04/24 23:17, 48.45
2019/04/24 23:37, 48.87
2019/04/24 23:57, 49.75
2019/04/25 00:17, 50.12
2019/04/25 00:37, 50.54
2019/04/25 00:57, 50.57
2019/04/25 01:17, 50.57
2019/04/25 01:37, 50.55
2019/04/25 01:57, 50.59
2019/04/25 02:17, 50.56
2019/04/25 10:57, 50.62
2019/04/25 11:17, 50.69
2019/04/25 11:37, 50.59
2019/04/25 11:57, 49.23
2019/04/25 12:17, 48.43
2019/04/25 12:37, 48.52
2019/04/25 12:57, 47.71
2019/04/25 13:17, 48.10
2019/04/25 13:37, 47.94
2019/04/25 13:57, 48.05
2019/04/25 14:17, 47.99
2019/04/25 14:37, 47.63
2019/04/25 14:57, 47.62
2019/04/25 15:17, 47.76
2019/04/25 15:37, 48.47
2019/04/25 15:57, 48.31
2019/04/25 16:17, 48.86
2019/04/25 16:37, 48.92
2019/04/25 16:57, 49.04
2019/04/25 17:17, 48.91
2019/04/25 17:37, 49.18
2019/04/25 17:57, 48.67
2019/04/25 18:17, 48.44
2019/04/25 18:37, 48.93
2019/04/25 18:57, 48.08
2019/04/25 19:17, 48.52
2019/04/25 19:37, 47.85
2019/04/25 19:57, 48.34
2019/04/25 20:17, 47.08
2019/04/25 21:17, 48.90
2019/04/25 22:17, 50.32
2019/04/25 22:57, 50.56
2019/04/25 23:57, 50.22
2019/04/26 00:57, 50.26
2019/04/26 01:57, 50.20
2019/04/26 02:57, 50.24
2019/04/26 03:57, 50.17
2019/04/26 04:57, 50.54
2019/04/26 05:57, 50.22
2019/04/26 11:57, 50.20
2019/04/26 12:57, 50.36
2019/04/26 13:57, 50.23
2019/04/26 14:57, 49.03
2019/04/26 15:57, 49.03
2019/04/26 16:57, 49.84
2019/04/26 17:57, 48.76
2019/04/26 18:57, 47.79
2019/04/26 19:57, 46.53
2019/04/26 20:57, 46.16
2019/04/26 21:57, 45.98
2019/04/26 22:57, 45.88
2019/04/26 23:57, 49.51
2019/04/27 00:57, 50.26
2019/04/27 01:57, 50.54
2019/04/27 02:57, 49.85
2019/04/27 03:57, 49.93
2019/04/27 04:57, 50.15
2019/04/27 05:57, 50.20
2019/04/27 06:57, 50.56
2019/04/27 11:57, 50.39
2019/04/27 12:57, 47.58
2019/04/27 13:57, 50.32
2019/04/27 14:57, 50.24
2019/04/27 15:57, 50.32
2019/04/27 16:57, 50.46
2019/04/27 17:57, 49.19
2019/04/27 18:57, 50.12
2019/04/27 19:57, 50.33
2019/04/27 20:57, 50.39
2019/04/27 21:57, 50.22
2019/04/27 22:57, 50.10
2019/04/27 23:57, 50.22
2019/04/28 00:57, 50.57
2019/04/28 01:57, 50.23
2019/04/28 02:57, 50.56
2019/04/28 03:57, 50.23
2019/04/28 04:57, 50.54
2019/04/28 05:57, 50.21
2019/04/28 11:57, 49.06
2019/04/28 12:57, 46.03
2019/04/28 13:57, 46.54
2019/04/28 14:57, 46.54
2019/04/28 15:57, 47.63
2019/04/28 16:57, 48.45
2019/04/28 17:57, 47.78
2019/04/28 18:57, 47.27
2019/04/28 19:57, 46.35
2019/04/28 20:57, 47.63
2019/04/28 21:57, 46.44
2019/04/28 22:57, 47.58
2019/04/28 23:57, 50.28
2019/04/29 00:57, 50.33
2019/04/29 01:57, 50.60
2019/04/29 02:57, 50.46
2019/04/29 03:57, 50.16
2019/04/29 04:57, 49.85
2019/04/29 05:57, 50.56
2019/04/29 06:57, 50.20
2019/04/29 07:57, 50.57
2019/04/29 08:57, 50.18
2019/04/29 11:57, 50.17
2019/04/29 12:57, 50.00
2019/04/29 13:57, 50.53
2019/04/29 14:57, 49.97
2019/04/29 15:57, 50.28
2019/04/29 16:57, 50.44
2019/04/29 17:57, 50.15
2019/04/29 18:57, 50.29
2019/04/29 19:57, 50.12
2019/04/29 20:57, 50.14
2019/04/29 21:57, 50.22
2019/04/29 22:57, 50.23
2019/04/29 23:57, 50.18
2019/04/30 00:57, 50.16
2019/04/30 01:57, 50.18
2019/04/30 02:57, 50.18
2019/05/17 15:17, 48.20
2019/05/17 15:37, 48.74
2019/05/17 15:57, 49.68
2019/05/17 16:17, 48.99
2019/05/17 16:37, 48.70
2019/05/17 16:57, 48.86
2019/05/17 17:17, 49.40
2019/05/17 17:37, 48.61
2019/05/17 17:57, 49.53
2019/05/17 18:17, 50.07
2019/05/17 18:37, 50.65
2019/05/17 18:57, 50.24
2019/05/17 19:17, 50.24
2019/05/17 19:37, 50.47
2019/05/17 19:57, 50.50
2019/05/17 20:17, 48.55
2019/05/17 20:37, 48.67
2019/05/17 20:57, 50.38
2019/05/17 21:17, 49.79
2019/05/17 21:37, 48.11
2019/05/17 21:57, 50.60
2019/05/17 22:17, 50.65
2019/05/17 22:37, 50.63
2019/05/17 22:57, 50.03
2019/05/17 23:17, 50.65
2019/05/17 23:37, 49.83
2019/05/17 23:57, 50.65
2019/05/18 00:17, 50.64
2019/05/18 00:37, 50.61
2019/05/18 00:57, 50.54
2019/05/18 01:17, 50.56
2019/05/18 01:37, 50.54
2019/05/18 01:57, 50.58
2019/05/18 02:17, 50.57
2019/05/18 02:37, 50.56
2019/05/18 02:57, 50.55
2019/05/18 03:17, 50.56
2019/05/18 03:37, 50.57
2019/05/18 03:57, 50.54
2019/05/18 04:17, 50.55
2019/05/18 04:37, 50.55
2019/05/18 04:57, 50.56
2019/05/18 05:17, 50.58
2019/05/18 05:37, 50.57
2019/05/18 05:57, 50.56
2019/05/18 06:17, 50.58
2019/05/18 06:37, 50.55
2019/05/18 06:57, 50.55
2019/05/18 07:17, 50.56
2019/05/18 07:37, 50.52
2019/05/18 07:57, 50.54
2019/05/18 08:17, 50.56
2019/05/18 08:37, 50.55
2019/05/18 08:57, 50.54
2019/05/18 09:17, 50.55
2019/05/18 09:37, 50.56
2019/05/18 09:57, 50.54
2019/05/18 10:17, 50.55
2019/05/18 10:37, 50.56
2019/05/18 10:57, 50.56
2019/05/18 11:17, 50.54
2019/05/18 11:37, 50.55
2019/05/18 11:57, 50.55
2019/05/18 12:17, 50.56
2019/05/18 12:37, 50.59
2019/05/18 12:57, 50.61
2019/05/18 13:17, 50.59
2019/05/18 13:37, 50.59
2019/05/18 13:57, 50.64
2019/05/18 14:17, 50.59
2019/05/18 14:37, 50.58
2019/05/18 14:57, 50.64
2019/05/18 15:17, 50.65
2019/05/18 15:37, 49.98
2019/05/18 15:57, 48.10
2019/05/18 16:17, 50.42
2019/05/18 16:37, 49.52
2019/05/18 16:57, 48.92
2019/05/18 17:17, 50.33
2019/05/18 17:37, 49.67
2019/05/18 17:57, 50.59
2019/05/18 18:17, 49.97
2019/05/18 18:37, 49.85
2019/05/18 18:57, 50.25
2019/05/18 19:17, 50.48
2019/05/18 19:37, 50.41
2019/05/18 19:57, 49.85
2019/05/18 20:17, 50.17
2019/05/18 20:37, 50.43
2019/05/18 20:57, 50.60
2019/05/18 21:17, 50.63
2019/05/18 21:37, 50.59
2019/05/18 21:57, 50.59
2019/05/18 22:17, 50.60
2019/05/18 22:37, 50.58
2019/05/18 22:57, 50.56
2019/05/18 23:17, 50.54
2019/05/18 23:37, 50.61
2019/05/18 23:57, 50.65
2019/05/19 00:17, 50.60
2019/05/19 00:37, 50.54
2019/05/19 00:57, 50.55
2019/05/19 01:17, 50.54
2019/05/19 01:37, 50.53
2019/05/19 01:57, 50.55
2019/05/19 02:17, 50.55
2019/05/19 02:37, 50.55
2019/05/19 02:57, 50.52
2019/05/19 03:17, 50.53
2019/05/19 03:37, 50.53
2019/05/19 03:57, 50.53
2019/05/19 04:17, 50.55
2019/05/19 04:37, 50.54
2019/05/19 04:57, 50.56
2019/05/19 05:17, 50.55
2019/05/19 05:37, 50.51
2019/05/19 05:57, 50.51
2019/05/19 06:17, 50.53
2019/05/19 06:37, 50.55
2019/05/19 06:57, 50.55
2019/05/19 10:17, 50.53
2019/05/19 10:37, 50.54
2019/05/19 10:57, 50.54
2019/05/19 11:17, 50.52
2019/05/19 11:37, 50.56
2019/05/19 11:57, 50.53
2019/05/19 12:17, 50.56
2019/05/19 12:37, 50.60
2019/05/19 12:57, 50.62
2019/05/19 13:17, 50.65
2019/05/19 13:37, 50.64
2019/05/19 13:57, 50.66
2019/05/19 14:17, 50.64
2019/05/19 14:37, 50.65
2019/05/19 14:57, 50.63
2019/05/19 15:17, 50.61
2019/05/19 15:37, 50.59
2019/05/19 15:57, 50.57
2019/05/19 16:17, 50.59
2019/05/19 16:37, 50.62
2019/05/19 16:57, 50.61
2019/05/19 17:17, 50.59
2019/05/19 17:37, 50.56
2019/05/19 17:57, 50.60
2019/05/19 18:17, 50.64
2019/05/19 18:37, 50.66
2019/05/19 18:57, 50.62
2019/05/19 19:17, 50.65
2019/05/19 19:37, 49.99
2019/05/19 19:57, 48.63
2019/05/19 20:17, 50.64
2019/05/19 20:37, 50.64
2019/05/19 20:57, 50.64
2019/05/19 21:17, 47.42
2019/05/19 21:37, 50.64
2019/05/19 21:57, 47.81
2019/05/19 22:17, 47.75
2019/05/19 22:37, 47.69
2019/05/19 22:57, 47.39
2019/05/19 23:17, 47.84
2019/05/19 23:37, 48.58
2019/05/19 23:57, 49.31
2019/05/20 00:17, 50.59
2019/05/20 00:37, 50.58
2019/05/20 00:57, 50.57
2019/05/20 01:17, 50.58
2019/05/20 01:37, 50.58
2019/05/20 01:57, 50.55
2019/05/20 02:17, 50.59
2019/05/20 02:37, 50.57
2019/05/20 02:57, 50.57
2019/05/20 03:17, 50.56
2019/05/20 03:37, 50.57
2019/05/20 03:57, 50.56
2019/05/20 04:17, 50.57
2019/05/20 04:37, 50.59
2019/05/20 04:57, 50.54
2019/05/20 05:17, 50.57
2019/05/20 05:37, 50.54
2019/05/20 05:57, 50.56
2019/05/20 06:17, 50.57
2019/05/20 06:37, 50.57
2019/05/20 06:57, 50.57
2019/05/20 07:17, 50.58
2019/05/20 07:37, 50.57
2019/05/20 07:57, 50.57
2019/05/20 08:17, 50.58
2019/05/20 08:37, 50.55
2019/05/20 08:57, 50.57
2019/05/20 09:17, 50.54
2019/05/20 09:37, 50.56
2019/05/20 09:57, 50.56
2019/05/20 10:17, 50.57
2019/05/20 10:37, 50.58
2019/05/20 10:57, 50.59
2019/05/20 11:17, 50.58
2019/05/20 11:37, 50.61
2019/05/20 11:57, 50.60
2019/05/20 12:17, 50.63
2019/05/20 12:37, 50.64
2019/05/20 12:57, 50.66
2019/05/20 13:17, 50.64
2019/05/20 13:37, 50.66
2019/05/20 13:57, 50.67
2019/05/20 14:17, 50.67
2019/05/20 14:37, 50.61
2019/05/20 14:57, 50.68
2019/05/20 15:17, 50.50
2019/05/20 15:37, 50.66
2019/05/20 15:57, 50.36
2019/05/20 16:17, 49.88
2019/05/20 16:37, 49.11
2019/05/20 16:57, 49.03
2019/05/20 17:17, 48.30
2019/05/20 17:37, 50.04
2019/05/20 17:57, 49.20
2019/05/20 18:17, 48.71
2019/05/20 18:37, 48.12
2019/05/20 18:57, 48.81
2019/05/20 19:17, 46.14
2019/05/20 19:37, 48.96
2019/05/20 19:57, 48.11
2019/05/20 20:17, 48.54
2019/05/20 20:37, 50.43
2019/05/20 20:57, 46.99
2019/05/20 21:17, 46.68
2019/05/20 21:37, 46.42
2019/05/20 21:57, 50.60
2019/05/20 22:17, 46.35
2019/05/20 22:37, 46.36
2019/05/20 22:57, 46.48
2019/05/20 23:17, 47.49
2019/05/20 23:37, 49.56
2019/05/20 23:57, 50.55
2019/05/21 00:17, 50.61
2019/05/21 00:37, 50.60
2019/05/21 00:57, 50.57
2019/05/21 01:17, 50.56
2019/05/21 01:37, 50.57
2019/05/21 01:57, 50.56
2019/05/21 02:17, 50.57
2019/05/21 02:37, 50.55
2019/05/21 02:57, 50.57
2019/05/21 03:17, 50.56
2019/05/21 03:37, 50.57
2019/05/21 03:57, 50.55
2019/05/21 04:17, 50.56
2019/05/21 04:37, 50.57
2019/05/21 04:57, 50.55
2019/05/21 05:17, 50.56
2019/05/21 05:37, 50.57
2019/05/21 05:57, 50.55
2019/05/21 06:17, 50.55
2019/05/21 06:37, 50.54
2019/05/21 06:57, 50.55
2019/05/21 07:17, 50.56
2019/05/21 07:37, 50.56
2019/05/21 07:57, 50.53
2019/05/21 08:17, 50.57
2019/05/21 08:37, 50.56
2019/05/21 08:57, 50.56
2019/05/21 09:17, 50.53
2019/05/21 09:37, 50.56
2019/05/21 09:57, 50.55
2019/05/21 10:17, 50.55
2019/05/21 10:37, 50.57
2019/05/21 10:57, 50.57
2019/05/21 11:17, 50.53
2019/05/21 11:37, 50.55
2019/05/21 11:57, 50.55
2019/05/21 12:17, 50.60
2019/05/21 12:37, 50.63
2019/05/21 12:57, 50.65
2019/05/21 13:17, 50.39
2019/05/21 13:37, 48.66
2019/05/21 13:57, 48.74
2019/05/21 14:17, 48.84
2019/05/21 14:37, 48.68
2019/05/21 14:57, 48.59
2019/05/21 15:17, 47.49
2019/05/21 15:37, 48.95
2019/05/21 15:57, 48.89
2019/05/21 16:17, 50.36
2019/05/21 16:37, 49.65
2019/05/21 16:57, 49.69
2019/05/21 17:17, 48.80
2019/05/21 17:37, 49.46
2019/05/21 17:57, 49.38
2019/05/21 18:17, 50.00
2019/05/21 18:37, 48.01
2019/05/21 18:57, 49.68
2019/05/21 19:17, 50.20
2019/05/21 19:37, 49.91
2019/05/21 19:57, 49.89
2019/05/21 20:17, 48.05
2019/05/21 20:37, 48.47
2019/05/21 20:57, 49.90
2019/05/21 21:17, 50.52
2019/05/21 21:37, 47.06
2019/05/21 21:57, 50.63
2019/05/21 22:17, 50.62
2019/05/21 22:37, 50.59
2019/05/21 22:57, 50.58
2019/05/21 23:17, 50.55
2019/05/21 23:37, 50.58
2019/05/21 23:57, 50.57
2019/05/22 00:17, 50.54
2019/05/22 00:37, 50.53
2019/05/22 00:57, 50.55
2019/05/22 01:17, 50.52
2019/05/22 01:37, 50.55
2019/05/22 01:57, 50.55
2019/05/22 02:17, 50.53
2019/05/22 02:37, 50.52
2019/05/22 02:57, 50.50
2019/05/22 03:17, 50.50
2019/05/22 03:37, 50.51
2019/05/22 03:57, 50.50
2019/05/22 04:17, 50.50
2019/05/22 04:37, 50.50
2019/05/22 04:57, 50.51
2019/05/22 05:17, 50.51
2019/05/22 05:37, 50.49
2019/05/22 05:57, 50.50
2019/05/22 06:17, 50.53
2019/05/22 06:37, 50.50
2019/05/22 06:57, 50.52
2019/05/22 07:17, 50.52
2019/05/22 07:37, 50.50
2019/05/22 07:57, 50.52
2019/05/22 08:17, 50.51
2019/05/22 08:37, 50.52
2019/05/22 08:57, 50.53
2019/05/22 09:17, 50.51
2019/05/22 09:37, 50.50
2019/05/22 09:57, 50.50
2019/05/22 10:17, 50.53
2019/05/22 10:37, 50.52
2019/05/22 10:57, 50.50
2019/05/22 11:17, 50.51
2019/05/22 11:37, 50.53
2019/05/22 11:57, 50.57
2019/05/22 12:17, 50.52
2019/05/22 12:37, 50.51
2019/05/22 12:57, 50.56
2019/05/22 13:17, 48.21
2019/05/22 13:37, 50.50
2019/05/22 13:57, 50.61
2019/05/22 14:17, 47.19
2019/05/22 14:37, 50.62
2019/05/22 14:57, 50.56
2019/05/22 15:17, 50.64
2019/05/22 15:37, 50.58
2019/05/22 15:57, 50.61
2019/05/22 16:17, 50.48
2019/05/22 16:37, 50.48
2019/05/22 16:57, 50.37
2019/05/22 17:17, 50.33
2019/05/22 17:37, 48.72
2019/05/22 17:57, 49.12
2019/05/22 18:17, 49.85
2019/05/22 18:37, 49.70
2019/05/22 18:57, 49.52
2019/05/22 19:17, 49.20
2019/05/22 19:37, 48.77
2019/05/22 19:57, 48.91
2019/05/22 20:17, 48.80
2019/05/22 20:37, 48.58
2019/05/22 20:57, 48.23
2019/05/22 21:17, 48.31
2019/05/22 21:37, 49.27
2019/05/22 21:57, 47.36
2019/05/22 22:17, 48.15
2019/05/22 22:37, 48.11
2019/05/22 22:57, 48.12
2019/05/22 23:17, 47.59
2019/05/22 23:37, 48.98
2019/05/22 23:57, 50.29
2019/05/23 00:17, 50.56
2019/05/23 00:37, 50.53
2019/05/23 00:57, 50.52
2019/05/23 01:17, 50.52
2019/05/23 01:37, 50.52
2019/05/23 01:57, 50.52
2019/05/23 02:17, 50.51
2019/05/23 02:37, 50.50
2019/05/23 02:57, 50.51
2019/05/23 03:17, 50.51
2019/05/23 03:37, 50.54
2019/05/23 03:57, 50.51
2019/05/23 04:17, 50.53
2019/05/23 04:37, 50.53
2019/05/23 04:57, 50.50
2019/05/23 05:17, 50.52
2019/05/23 05:37, 50.52
2019/05/23 05:57, 50.51
2019/05/23 06:17, 50.51
2019/05/23 06:37, 50.52
2019/05/23 06:57, 50.50
2019/05/23 07:17, 50.52
2019/05/23 07:37, 50.52
2019/05/23 07:57, 50.50
2019/05/23 08:17, 50.49
2019/05/23 08:37, 50.48
2019/05/23 08:57, 50.53
2019/05/23 09:17, 50.53
2019/05/23 09:37, 50.51
2019/05/23 09:57, 50.51
2019/05/23 10:17, 50.52
2019/05/23 10:37, 50.50
2019/05/23 10:57, 50.52
2019/05/23 11:17, 50.51
2019/05/23 11:37, 50.54
2019/05/23 11:57, 49.97
2019/05/23 12:17, 49.51
2019/05/23 12:37, 49.47
2019/05/23 12:57, 48.63
2019/05/23 13:17, 49.01
2019/05/23 13:37, 48.64
2019/05/23 13:57, 48.76
2019/05/24 10:17, 50.52
2019/05/24 10:37, 50.49
2019/05/24 10:57, 50.52
2019/05/24 11:17, 50.53
2019/05/24 11:37, 50.49
2019/05/24 11:57, 50.49
2019/05/24 12:17, 50.51
2019/05/24 12:37, 50.51
2019/05/24 12:57, 50.53
2019/05/24 13:17, 50.50
2019/05/24 13:37, 50.55
2019/05/24 13:57, 50.60
2019/05/24 14:17, 50.59
2019/05/24 14:37, 50.56
2019/05/24 14:57, 50.51
2019/05/24 15:17, 50.53
2019/05/24 15:37, 50.51
2019/05/24 15:57, 50.55
2019/05/24 16:17, 50.53
2019/05/24 16:37, 50.55
2019/05/24 16:57, 50.59
2019/05/24 17:17, 50.60
2019/05/24 17:37, 50.60
2019/05/24 17:57, 50.56
2019/05/24 18:17, 50.52
2019/05/24 18:37, 50.56
2019/05/24 18:57, 50.59
2019/05/24 19:17, 50.61
2019/05/24 19:37, 50.63
2019/05/24 19:57, 50.63
2019/05/24 20:17, 50.55
2019/05/24 20:37, 50.59
2019/05/24 20:57, 50.60
2019/05/24 21:17, 49.80
2019/05/24 21:37, 47.69
2019/05/24 21:57, 49.23
2019/05/24 22:17, 50.16
2019/05/24 22:37, 50.54
2019/05/24 22:57, 50.55
2019/05/24 23:17, 50.55
2019/05/24 23:37, 50.56
2019/05/24 23:57, 50.51
2019/05/25 00:17, 50.52
2019/05/25 00:37, 50.51
2019/05/25 00:57, 50.50
2019/05/25 01:17, 50.49
2019/05/25 01:37, 50.50
2019/05/25 01:57, 50.47
2019/05/25 02:17, 50.52
2019/05/25 02:37, 50.50
2019/05/25 02:57, 50.49
2019/05/25 03:17, 50.47
2019/05/25 03:37, 50.49
2019/05/25 07:37, 50.53
2019/05/25 07:57, 50.51
2019/05/25 10:57, 50.54
2019/05/25 11:17, 50.55
2019/05/25 11:37, 50.59
2019/05/25 11:57, 50.39
2019/05/25 12:17, 49.82
2019/05/25 12:37, 50.61
2019/05/25 12:57, 50.53
2019/05/25 13:17, 50.53
2019/05/25 13:37, 50.59
2019/05/25 13:57, 50.55
2019/05/25 14:17, 50.58
2019/05/25 14:37, 50.57
2019/05/25 14:57, 50.56
2019/05/25 15:17, 50.63
2019/05/25 15:37, 50.62
2019/05/25 15:57, 50.59
2019/05/25 16:17, 50.59
2019/05/25 16:37, 50.62
2019/05/25 16:57, 50.61
2019/05/25 17:17, 50.56
2019/05/25 17:37, 50.60
2019/05/25 17:57, 50.62
2019/05/25 18:17, 49.69
2019/05/25 18:37, 50.02
2019/05/26 10:57, 50.51
2019/05/26 11:17, 50.54
2019/05/26 11:37, 50.50
2019/05/26 11:57, 50.52
2019/05/26 12:17, 50.54
2019/05/26 12:37, 50.57
2019/05/26 12:57, 50.56
2019/05/26 13:17, 50.60
2019/05/26 13:37, 50.59
2019/05/26 13:57, 50.12
2019/05/26 14:17, 50.59
2019/05/26 14:37, 50.06
2019/05/26 14:57, 50.37
2019/05/26 15:17, 50.44
2019/05/26 15:37, 50.41
2019/05/26 15:57, 50.07
2019/05/26 16:17, 49.97
2019/05/26 16:37, 49.34
2019/05/26 16:57, 47.08
2019/05/26 17:17, 49.31
2019/05/26 17:37, 47.58
2019/05/26 17:57, 49.49
2019/05/26 18:17, 48.67
2019/05/26 18:37, 49.13
2019/05/26 18:57, 48.70
2019/05/26 19:17, 48.77
2019/05/26 19:37, 48.74
2019/05/26 19:57, 48.39
2019/05/26 20:17, 48.23
2019/05/26 20:37, 47.54
2019/05/26 20:57, 47.62
2019/05/26 21:17, 47.51
2019/05/26 21:37, 47.46
2019/05/26 21:57, 47.01
2019/05/26 22:17, 47.44
2019/05/26 22:37, 47.13
2019/05/26 22:57, 47.55
2019/05/26 23:17, 47.29
2019/05/26 23:37, 47.43
2019/05/26 23:57, 48.77
2019/05/27 00:17, 49.25
2019/05/27 00:37, 50.52
2019/05/27 00:57, 50.53
2019/05/27 01:17, 50.51
2019/05/27 01:37, 50.49
2019/05/27 01:57, 50.51
2019/05/27 02:17, 50.52
2019/05/27 02:37, 50.52
2019/05/27 02:57, 50.50
2019/05/27 03:17, 50.51
2019/05/27 03:37, 50.51
2019/05/27 03:57, 50.50
2019/05/27 04:17, 50.51
2019/05/27 04:37, 50.51
2019/05/27 04:57, 50.52
2019/05/27 05:17, 50.50
2019/05/27 05:37, 50.49
2019/05/27 05:57, 50.49
2019/05/27 06:17, 50.50
2019/05/27 06:37, 50.50
2019/05/27 06:57, 50.54
2019/05/27 07:17, 50.50
2019/05/27 07:37, 50.51
2019/05/27 07:57, 50.53
2019/05/27 08:17, 50.51
2019/05/27 08:37, 50.50
2019/05/27 08:57, 50.50
2019/05/27 09:17, 50.49
2019/05/27 09:37, 50.51
2019/05/27 09:57, 50.47
2019/05/27 10:17, 50.50
2019/05/27 10:37, 50.58
2019/05/27 10:57, 50.62
2019/05/27 11:17, 49.99
2019/05/27 11:37, 49.00
2019/05/27 11:57, 48.51
2019/05/27 12:17, 48.12
2019/05/27 12:37, 48.46
2019/05/27 12:57, 47.41
2019/05/27 13:17, 47.49
2019/05/27 13:37, 47.64
2019/05/27 13:57, 47.25
2019/05/27 14:17, 47.71
2019/05/27 14:37, 47.44
2019/05/27 14:57, 47.88
2019/05/27 15:17, 47.18
2019/05/27 15:37, 47.35
2019/05/27 15:57, 47.39
2019/05/27 16:17, 47.65
2019/05/27 16:37, 47.81
2019/05/27 16:57, 47.35
2019/05/27 17:17, 48.21
2019/05/27 17:37, 48.27
2019/05/27 17:57, 48.39
2019/05/27 18:17, 49.80
2019/05/27 18:37, 49.55
2019/05/27 18:57, 48.26
2019/05/27 19:17, 50.55
2019/05/27 19:37, 50.54
2019/05/27 19:57, 50.53
2019/05/27 20:17, 50.56
2019/05/27 20:37, 50.52
2019/05/27 20:57, 50.51
2019/05/27 21:17, 50.50
2019/05/27 21:37, 50.50
2019/05/27 21:57, 50.50
2019/05/27 22:17, 50.51
2019/05/27 22:37, 50.50
2019/05/27 22:57, 50.48
2019/05/27 23:17, 50.48
2019/05/27 23:37, 50.50
2019/05/27 23:57, 50.48
2019/05/28 00:17, 50.48
2019/05/28 00:37, 50.50
2019/05/28 00:57, 50.48
2019/05/28 01:17, 50.51
2019/05/28 01:37, 50.50
2019/05/28 01:57, 50.50
2019/05/28 02:17, 50.50
2019/05/28 02:37, 50.48
2019/05/28 02:57, 50.51
2019/05/28 03:17, 50.50
2019/05/28 03:37, 50.47
2019/05/28 03:57, 50.49
2019/05/28 04:17, 50.47
2019/05/28 04:37, 50.48
2019/05/28 04:57, 50.50
2019/05/28 05:17, 50.50
2019/05/28 05:37, 50.50
2019/05/28 05:57, 50.51
2019/05/28 06:17, 50.48
2019/05/28 06:37, 50.49
2019/05/28 06:57, 50.48
2019/05/28 07:17, 50.46
2019/05/28 07:37, 50.49
2019/05/28 07:57, 50.47
2019/05/28 08:17, 50.47
2019/05/28 08:37, 50.52
2019/05/28 08:57, 50.49
2019/05/28 09:17, 50.46
2019/05/28 09:37, 50.53
2019/05/28 09:57, 50.52
2019/05/28 10:17, 50.48
2019/05/28 10:37, 50.52
2019/05/28 10:57, 50.51
2019/05/28 11:17, 50.49
2019/05/28 11:37, 50.50
2019/05/28 11:57, 50.49
2019/05/28 12:17, 50.56
2019/05/28 12:37, 50.60
2019/05/28 12:57, 50.59
2019/05/28 13:17, 50.55
2019/05/28 13:37, 50.59
2019/05/28 13:57, 50.60
2019/05/28 14:17, 50.59
2019/05/28 14:37, 50.63
2019/05/28 14:57, 50.39
2019/05/28 15:17, 50.00
2019/05/28 15:37, 50.56
2019/05/28 15:57, 50.59
2019/05/28 16:17, 50.58
2019/05/28 16:37, 50.60
2019/05/28 16:57, 50.61
2019/05/28 17:17, 50.60
2019/05/28 17:37, 50.61
2019/05/28 17:57, 50.58
2019/05/28 18:17, 50.26
2019/05/28 18:37, 50.62
2019/05/28 18:57, 50.55
2019/05/28 19:17, 50.60
2019/05/28 19:37, 50.62
2019/05/28 19:57, 50.54
2019/05/28 20:17, 50.53
2019/05/28 20:37, 50.52
2019/05/28 20:57, 50.60
2019/05/28 21:17, 50.55
2019/05/28 21:37, 50.55
2019/05/29 10:57, 50.54
2019/05/29 11:17, 50.54
2019/05/29 11:37, 50.51
2019/05/29 11:57, 50.55
2019/05/29 12:17, 50.63
2019/05/29 12:37, 49.78
2019/05/29 12:57, 47.71
2019/05/29 13:17, 50.60
2019/05/29 13:37, 50.56
2019/05/29 13:57, 50.55
2019/05/29 14:17, 50.54
2019/05/29 14:37, 50.53
2019/05/29 14:57, 50.53
2019/05/29 15:17, 50.53
2019/05/29 15:37, 50.53
2019/05/29 15:57, 50.56
2019/05/29 16:17, 50.59
2019/05/29 16:37, 50.59
2019/05/29 16:57, 50.31
2019/05/29 17:17, 48.37
2019/05/29 17:37, 48.80
2019/05/29 17:57, 48.22
2019/05/29 19:57, 47.07
2019/05/29 20:17, 48.27
2019/05/29 20:37, 48.68
2019/05/29 20:57, 48.13
2019/05/29 21:17, 47.10
2019/05/29 21:37, 50.54
2019/05/29 21:57, 50.55
2019/05/29 22:17, 50.61
2019/05/29 22:37, 50.57
2019/05/29 22:57, 50.56
2019/05/29 23:17, 50.54
2019/05/29 23:37, 50.56
2019/05/29 23:57, 50.51
2019/05/30 00:17, 50.50
2019/05/30 00:37, 50.48
2019/05/30 00:57, 50.50
2019/05/30 01:17, 50.51
2019/05/30 01:37, 50.50
2019/05/30 01:57, 50.53
2019/05/30 02:17, 50.53
2019/05/30 02:37, 50.51
2019/05/30 02:57, 50.49
2019/05/30 03:17, 50.49
2019/05/30 03:37, 50.52
2019/05/30 03:57, 50.50
2019/05/30 04:17, 50.51
2019/05/30 04:37, 50.49
2019/05/30 04:57, 50.50
2019/05/30 05:17, 50.48
2019/05/30 05:37, 50.51
2019/05/30 05:57, 50.48
2019/05/30 06:17, 50.48
2019/05/30 06:37, 50.49
2019/05/30 06:57, 50.48
2019/05/30 07:17, 50.53
2019/05/30 07:37, 50.49
2019/05/30 07:57, 50.46
2019/05/30 08:17, 50.49
2019/05/30 08:37, 50.49
2019/05/30 08:57, 50.47
2019/05/30 09:17, 50.47
2019/05/30 09:37, 50.48
2019/05/30 09:57, 50.52
2019/05/30 10:17, 50.49
2019/05/30 10:37, 50.52
2019/05/30 10:57, 50.47
2019/05/30 11:17, 50.52
2019/05/30 11:37, 50.49
2019/05/30 11:57, 50.48
2019/05/30 12:17, 50.51
2019/05/30 12:37, 50.52
2019/05/30 12:57, 50.52
2019/05/30 13:17, 50.52
2019/05/30 13:37, 50.51
2019/05/30 13:57, 50.55
2019/05/30 14:17, 50.51
2019/05/30 14:37, 50.51
2019/05/30 14:57, 50.48
2019/05/30 15:17, 50.52
2019/05/30 15:37, 50.52
2019/05/30 15:57, 50.51
2019/05/30 16:17, 50.50
2019/05/30 16:37, 50.49
2019/05/30 16:57, 50.58
2019/05/30 17:17, 50.58
2019/05/30 17:37, 50.60
2019/05/30 17:57, 50.56
2019/05/30 18:17, 50.52
2019/05/30 18:37, 50.60
2019/05/30 18:57, 50.56
2019/05/30 19:17, 49.70
2019/05/30 19:37, 50.29
2019/05/30 19:57, 48.23
2019/05/30 20:17, 48.12
2019/05/30 20:37, 47.09
2019/05/30 20:57, 49.48
2019/05/30 21:17, 50.55
2019/05/30 21:37, 50.53
2019/05/30 21:57, 50.55
2019/05/30 22:17, 50.51
2019/05/30 22:37, 50.54
2019/05/30 22:57, 50.52
2019/05/30 23:17, 50.55
2019/05/30 23:37, 50.54
2019/05/30 23:57, 50.54
2019/05/31 00:17, 50.52
2019/05/31 00:37, 50.49